TimeEST,TemperatureF,Dew PointF,Humidity,Sea Level PressureIn,VisibilityMPH,Wind Direction,Wind SpeedMPH,Gust SpeedMPH,PrecipitationIn,Events,Conditions,WindDirDegrees,DateUTC
12:05 AM,28.4,28.4,100,29.74,0.5,West,6.9,-,N/A,Fog,Light Freezing Fog,260,2013-02-05 05:05:00
12:50 AM,30.2,30.2,100,29.74,1.5,WSW,9.2,-,N/A,,Overcast,250,2013-02-05 05:50:00
1:10 AM,30.2,30.2,100,29.74,2.5,WSW,8.1,17.3,N/A,,Overcast,240,2013-02-05 06:10:00
1:30 AM,30.2,30.2,100,29.74,2.5,WSW,10.4,16.1,N/A,,Overcast,250,2013-02-05 06:30:00
1:50 AM,30.2,30.2,100,29.73,2.5,WSW,10.4,18.4,N/A,,Overcast,250,2013-02-05 06:50:00
2:15 AM,30.2,30.2,100,29.74,2.0,WSW,10.4,-,N/A,,Overcast,250,2013-02-05 07:15:00
2:35 AM,30.2,30.2,100,29.73,1.8,West,9.2,-,N/A,,Overcast,260,2013-02-05 07:35:00
2:55 AM,30.2,30.2,100,29.73,1.8,West,5.8,-,N/A,,Overcast,270,2013-02-05 07:55:00
3:20 AM,30.2,30.2,100,29.74,1.8,West,3.5,-,N/A,,Overcast,270,2013-02-05 08:20:00
4:00 AM,30.2,30.2,100,29.73,1.5,West,9.2,-,N/A,,Overcast,280,2013-02-05 09:00:00
4:20 AM,30.2,30.2,100,29.73,1.0,West,6.9,-,N/A,,Overcast,270,2013-02-05 09:20:00
4:45 AM,28.4,28.4,100,29.74,1.5,West,8.1,18.4,N/A,,Overcast,280,2013-02-05 09:45:00
6:10 AM,28.4,28.4,100,29.76,2.0,West,11.5,-,N/A,,Overcast,280,2013-02-05 11:10:00
6:30 AM,28.4,28.4,100,29.76,1.0,WSW,5.8,-,N/A,,Overcast,250,2013-02-05 11:30:00
6:50 AM,28.4,28.4,100,29.76,1.8,WSW,4.6,-,N/A,,Overcast,240,2013-02-05 11:50:00
7:15 AM,28.4,28.4,100,29.76,3.0,West,8.1,-,N/A,,Overcast,270,2013-02-05 12:15:00
7:55 AM,28.4,28.4,100,29.78,0.5,West,8.1,-,N/A,Fog,Light Freezing Fog,270,2013-02-05 12:55:00
8:15 AM,28.4,28.4,100,29.78,1.0,West,9.2,16.1,N/A,,Mostly Cloudy,280,2013-02-05 13:15:00
8:40 AM,28.4,28.4,100,29.78,7.0,West,5.8,-,N/A,,Overcast,260,2013-02-05 13:40:00
9:00 AM,28.4,28.4,100,29.78,7.0,WSW,5.8,-,N/A,,Overcast,250,2013-02-05 14:00:00
9:20 AM,28.4,28.4,100,29.78,5.0,WSW,5.8,-,N/A,,Overcast,240,2013-02-05 14:20:00
9:40 AM,28.4,28.4,100,29.78,4.0,SW,8.1,-,N/A,,Overcast,220,2013-02-05 14:40:00
10:05 AM,28.4,28.4,100,29.78,3.0,SW,6.9,-,N/A,,Overcast,220,2013-02-05 15:05:00
10:25 AM,28.4,28.4,100,29.78,4.0,SW,6.9,-,N/A,,Overcast,220,2013-02-05 15:25:00
10:45 AM,30.2,30.2,100,29.78,4.0,SW,5.8,-,N/A,,Overcast,230,2013-02-05 15:45:00
11:05 AM,30.2,30.2,100,29.78,2.0,WSW,8.1,-,N/A,,Overcast,240,2013-02-05 16:05:00
11:50 AM,30.2,30.2,100,29.77,1.2,WSW,6.9,-,N/A,,Overcast,240,2013-02-05 16:50:00
12:10 PM,30.2,30.2,100,29.76,1.0,WSW,5.8,-,N/A,,Overcast,240,2013-02-05 17:10:00
12:30 PM,30.2,30.2,100,29.75,0.8,SW,8.1,-,N/A,,Overcast,220,2013-02-05 17:30:00
12:55 PM,32.0,32.0,100,29.74,0.5,WSW,6.9,17.3,N/A,Fog,Light Freezing Fog,240,2013-02-05 17:55:00
1:15 PM,32.0,32.0,100,29.74,1.5,SW,12.7,18.4,N/A,,Overcast,230,2013-02-05 18:15:00
1:55 PM,32.0,32.0,100,29.73,0.5,WSW,11.5,24.2,N/A,Fog,Fog,250,2013-02-05 18:55:00
2:20 PM,32.0,32.0,100,29.72,2.0,WSW,17.3,26.5,N/A,,Overcast,250,2013-02-05 19:20:00
2:40 PM,32.0,32.0,100,29.73,5.0,WSW,15.0,26.5,N/A,,Overcast,250,2013-02-05 19:40:00
3:00 PM,32.0,32.0,100,29.73,2.0,WSW,16.1,28.8,N/A,,Overcast,250,2013-02-05 20:00:00
3:20 PM,32.0,32.0,100,29.74,10.0,West,11.5,24.2,N/A,,Overcast,260,2013-02-05 20:20:00
3:45 PM,32.0,32.0,100,29.74,10.0,WSW,11.5,31.1,N/A,,Overcast,250,2013-02-05 20:45:00
4:05 PM,32.0,32.0,100,29.75,10.0,WSW,15.0,25.3,N/A,,Overcast,250,2013-02-05 21:05:00
4:25 PM,30.2,30.2,100,29.75,7.0,WSW,10.4,24.2,N/A,,Overcast,250,2013-02-05 21:25:00
4:45 PM,30.2,30.2,100,29.75,5.0,WSW,16.1,24.2,N/A,,Overcast,240,2013-02-05 21:45:00
5:10 PM,30.2,30.2,100,29.76,3.0,WSW,10.4,20.7,N/A,,Overcast,250,2013-02-05 22:10:00
5:30 PM,30.2,30.2,100,29.77,1.2,WSW,11.5,26.5,N/A,,Overcast,250,2013-02-05 22:30:00
5:50 PM,28.4,28.4,100,29.77,1.2,West,12.7,23.0,N/A,,Overcast,260,2013-02-05 22:50:00
6:10 PM,28.4,28.4,100,29.77,1.8,WSW,10.4,17.3,N/A,,Overcast,250,2013-02-05 23:10:00
6:35 PM,28.4,28.4,100,29.78,1.2,West,8.1,18.4,N/A,,Overcast,260,2013-02-05 23:35:00
6:55 PM,28.4,28.4,100,29.78,1.8,WSW,5.8,-,N/A,,Overcast,250,2013-02-05 23:55:00
7:15 PM,28.4,28.4,100,29.78,1.5,West,10.4,-,N/A,,Overcast,260,2013-02-06 00:15:00
7:35 PM,28.4,28.4,100,29.79,1.2,WSW,11.5,20.7,N/A,,Mostly Cloudy,250,2013-02-06 00:35:00
8:00 PM,28.4,28.4,100,29.80,1.2,WSW,9.2,16.1,N/A,,Mist,250,2013-02-06 01:00:00
8:20 PM,26.6,26.6,100,29.80,1.0,WSW,8.1,-,N/A,,Mist,250,2013-02-06 01:20:00
8:40 PM,26.6,26.6,100,29.81,1.2,WSW,8.1,-,N/A,,Mist,250,2013-02-06 01:40:00
9:00 PM,26.6,26.6,100,29.81,1.5,West,8.1,-,N/A,,Mist,270,2013-02-06 02:00:00
9:25 PM,28.4,28.4,100,29.81,2.0,West,9.2,-,N/A,,Overcast,270,2013-02-06 02:25:00
9:45 PM,28.4,28.4,100,29.82,1.5,West,10.4,16.1,N/A,,Overcast,270,2013-02-06 02:45:00
10:05 PM,28.4,28.4,100,29.83,1.8,West,9.2,-,N/A,,Overcast,280,2013-02-06 03:05:00
10:25 PM,28.4,28.4,100,29.83,1.5,West,9.2,-,N/A,,Overcast,280,2013-02-06 03:25:00
10:50 PM,28.4,28.4,100,29.83,2.5,West,6.9,-,N/A,,Overcast,280,2013-02-06 03:50:00
11:10 PM,28.4,28.4,100,29.83,2.5,West,6.9,-,N/A,,Overcast,270,2013-02-06 04:10:00
11:30 PM,28.4,28.4,100,29.83,3.0,West,9.2,-,N/A,,Overcast,260,2013-02-06 04:30:00
11:55 PM,28.4,28.4,100,29.83,4.0,West,3.5,-,N/A,,Overcast,270,2013-02-06 04:55:00